Weather History for LLBG - May, 2013

Change the Weather History Date:

Thursday, May 16, 2013

  Actual Average Record
Temperature  
Mean Temperature 70 °F -  
Max Temperature 77 °F 81 °F - ()
Min Temperature 62 °F 64 °F - ()
Cooling Degree Days 4    
Growing Degree Days 20 (Base 50)    
Moisture  
Dew Point 58 °F    
Average Humidity 66    
Maximum Humidity 78    
Minimum Humidity 40    
Precipitation  
Precipitation 0.00 in - - ()
Sea Level Pressure  
Sea Level Pressure 29.97 in    
Wind  
Wind Speed 5 mph ()    
Max Wind Speed 14 mph    
Max Gust Speed -    
Visibility 6.2 miles    
Events Rain    
T = Trace of Precipitation, MM = Missing Value Source: Averaged Metar Reports

Daily Weather History Graph

Daily Weather History Graph

Search for Another Location

Airport or City:

Trip Planner

Search our weather history database for the weather conditions in past years. The results will help you decide how hot, cold, wet, or windy it might be!

Date:

Astronomy

May. 16, 2013 Rise Set
Actual Time 5:42 AM IDT 7:31 PM IDT
Civil Twilight 5:15 AM IDT 7:58 PM IDT
Nautical Twilight 4:43 AM IDT 8:31 PM IDT
Astronomical Twilight 4:08 AM IDT 9:05 PM IDT
Moon 10:50 AM IDT (5/16) No Moon Set
Length of Visible Light 14h 42m
Length of Day
13h 49m
Waxing Crescent, 33% of the Moon is Illuminated
May 16
Waxing Crescent
May 18
First Quarter
May 25
Full
May 31
Last Quarter
Jun 8
New

Hourly Weather History & Observations

Time (IDT) Temp. Dew Point Humidity Pressure Visibility Wind Dir Wind Speed Gust Speed Precip Events Conditions
12:20 AM 68.0 °F 57.2 °F 68% 29.92 in 6.2 mi Variable 2.3 mph - N/A   Partly Cloudy
12:50 AM 68.0 °F 57.2 °F 68% 29.92 in 6.2 mi Variable 1.2 mph - N/A   Partly Cloudy
1:20 AM 66.2 °F 57.2 °F 73% 29.92 in 6.2 mi Variable 2.3 mph - N/A   Partly Cloudy
1:50 AM 66.2 °F 57.2 °F 73% 29.92 in 6.2 mi Variable 3.5 mph - N/A   Partly Cloudy
2:20 AM 64.4 °F 57.2 °F 77% 29.92 in 6.2 mi South 4.6 mph - N/A   Scattered Clouds
2:50 AM 64.4 °F 57.2 °F 77% 29.92 in 6.2 mi South 5.8 mph - N/A   Partly Cloudy
3:00 AM 65 °F 57 °F 69% 29.94 in 6 mi South 5.8 mph - -   Scattered Clouds
3:20 AM 64.4 °F 57.2 °F 77% 29.92 in 6.2 mi South 5.8 mph - N/A   Partly Cloudy
3:50 AM 64.4 °F 57.2 °F 77% 29.92 in 6.2 mi Variable 3.5 mph - N/A   Scattered Clouds
4:20 AM 64.4 °F 57.2 °F 77% 29.92 in 6.2 mi East 4.6 mph - N/A   Partly Cloudy
4:50 AM 62.6 °F 55.4 °F 77% 29.92 in 6.2 mi Variable 3.5 mph - N/A   Partly Cloudy
5:20 AM 64.4 °F 57.2 °F 77% 29.92 in 6.2 mi Variable 3.5 mph - N/A   Partly Cloudy
5:50 AM 64.4 °F 57.2 °F 77% 29.95 in 6.2 mi Variable 2.3 mph - N/A   Partly Cloudy
6:20 AM 64.4 °F 57.2 °F 77% 29.95 in 6.2 mi Variable 3.5 mph - N/A   Partly Cloudy
6:50 AM 66.2 °F 57.2 °F 73% 29.95 in 6.2 mi Variable 2.3 mph - N/A   Scattered Clouds
7:20 AM 66.2 °F 57.2 °F 73% 29.95 in 6.2 mi SSE 4.6 mph - N/A   Mostly Cloudy
7:50 AM 66.2 °F 59.0 °F 78% 29.98 in 6.2 mi Variable 3.5 mph - N/A   Mostly Cloudy
8:20 AM 66.2 °F 59.0 °F 78% 29.98 in 6.2 mi South 5.8 mph - N/A Rain Light Rain
8:50 AM 66.2 °F 59.0 °F 78% 29.98 in 6.2 mi South 4.6 mph - N/A Rain Light Rain
9:00 AM 67 °F 60 °F 72% 29.99 in 6 mi South 4.6 mph - - Rain Light Drizzle
9:20 AM 69.8 °F 60.8 °F 73% 29.98 in 6.2 mi Variable 3.5 mph - N/A   Mostly Cloudy
9:50 AM 71.6 °F 59.0 °F 64% 29.98 in 6.2 mi Variable 2.3 mph - N/A   Scattered Clouds
10:20 AM 73.4 °F 57.2 °F 57% 29.98 in 6.2 mi Variable 2.3 mph - N/A   Scattered Clouds
10:50 AM 71.6 °F 60.8 °F 69% 29.98 in 6.2 mi WSW 6.9 mph - N/A   Mostly Cloudy
11:20 AM 73.4 °F 57.2 °F 57% 29.98 in 6.2 mi Variable 3.5 mph - N/A   Mostly Cloudy
11:50 AM 73.4 °F 57.2 °F 57% 30.01 in 6.2 mi West 6.9 mph - N/A   Scattered Clouds
12:20 PM 75.2 °F 59.0 °F 57% 29.98 in 6.2 mi WNW 10.4 mph - N/A   Scattered Clouds
12:50 PM 75.2 °F 57.2 °F 53% 29.98 in 6.2 mi West 8.1 mph - N/A   Scattered Clouds
1:20 PM 77.0 °F 57.2 °F 50% 29.98 in 6.2 mi WNW 10.4 mph - N/A   Partly Cloudy
1:50 PM 75.2 °F 55.4 °F 50% 29.98 in 6.2 mi WNW 11.5 mph - N/A   Scattered Clouds
2:20 PM 77.0 °F 55.4 °F 47% 29.98 in 6.2 mi West 12.7 mph - N/A   Scattered Clouds
2:50 PM 77.0 °F 55.4 °F 47% 29.98 in 6.2 mi WNW 13.8 mph - N/A   Scattered Clouds
3:00 PM 76 °F 56 °F 40% 29.98 in 6 mi WNW 13.8 mph - -   Partly Cloudy
3:20 PM 77.0 °F 53.6 °F 44% 29.98 in 6.2 mi WNW 13.8 mph - N/A   Partly Cloudy
3:50 PM 75.2 °F 57.2 °F 53% 29.98 in 6.2 mi NW 13.8 mph - N/A   Partly Cloudy
4:20 PM 75.2 °F 57.2 °F 53% 29.98 in 6.2 mi WNW 12.7 mph - N/A   Partly Cloudy
4:50 PM 75.2 °F 57.2 °F 53% 29.98 in 6.2 mi NW 12.7 mph - N/A   Partly Cloudy
5:20 PM 75.2 °F 59.0 °F 57% 29.98 in 6.2 mi WNW 12.7 mph - N/A   Partly Cloudy
5:50 PM 73.4 °F 59.0 °F 61% 29.98 in 6.2 mi NW 12.7 mph - N/A   Partly Cloudy
6:20 PM 73.4 °F 60.8 °F 65% 29.98 in 6.2 mi NW 10.4 mph - N/A   Partly Cloudy
6:50 PM 71.6 °F 60.8 °F 69% 29.98 in 6.2 mi NNW 11.5 mph - N/A   Partly Cloudy
7:20 PM 71.6 °F 60.8 °F 69% 30.01 in 6.2 mi NNW 10.4 mph - N/A   Partly Cloudy
7:50 PM 71.6 °F 59.0 °F 64% 30.01 in 6.2 mi NNW 10.4 mph - N/A   Partly Cloudy
8:20 PM 69.8 °F 59.0 °F 68% 30.01 in 6.2 mi North 6.9 mph - N/A   Partly Cloudy
9:20 PM 69.8 °F 59.0 °F 68% 30.01 in - North 8.1 mph - N/A   Clear
9:50 PM 69.8 °F 59.0 °F 68% 30.01 in - North 4.6 mph - N/A   Clear
10:20 PM 69.8 °F 59.0 °F 68% 30.01 in - Variable 2.3 mph - N/A   Clear
10:50 PM 69.8 °F 60.8 °F 73% 30.01 in 6.2 mi Variable 3.5 mph - N/A   Partly Cloudy
11:20 PM 69.8 °F 59.0 °F 68% 30.04 in - Variable 3.5 mph - N/A   Clear
11:50 PM 68.0 °F 59.0 °F 73% 30.01 in - Variable 3.5 mph - N/A   Clear